"Pseudo-MPEC" for ZTF1076

Created 2025 Oct 18 0:35:22 UT using Find_Orb

Click here for an explanation of pseudo-MPECs

 
 Astrometry: 
     ZTF1076*tC2025 10 13.33721702 31 27.130+13 56 53.67   ~ADF5 17.70gUNEOCPI41
     ZTF1076 tC2025 10 13.33756502 31 26.737+13 57 18.89   ~ADF5 17.70gUNEOCPI41
     ZTF1076 tC2025 10 13.34959702 31 16.471+14 10 55.32   ~ADF5 17.84gUNEOCPI41
     ZTF1076 tC2025 10 13.34994402 31 16.181+14 11 19.38   ~ADF5 17.84gUNEOCPI41
     ZTF1076  C2025 10 13.35006802 31 16.122+14 11 30.88   ~AECZ 17.43gUNEOCPI41
     ZTF1076  C2025 10 13.35041602 31 15.847+14 11 51.84   ~AECZ 17.43gUNEOCPI41

Station data:
(I41) Palomar Mountain--ZTF  (N33.357336 W116.859780)  US/California.
   Observers B. T. Bolin, Z. T. F. Collaboration. Measurers B. T. Bolin,
   Z.-Y. Lin, F. J. Masci. 1.2-m f/2.4 Schmidt.

Orbital elements:  ZTF1076
   Perihelion 2025 Dec 28.873904 +/- 33.9 TT = 20:58:25.3 (JD 2461038.373904)
Epoch 2025 Oct 13.0 TT = JDT 2460961.5   Earth MOID: 0.0049      AutoNEOCP
M 287.326625196 +/- 31              (J2000 ecliptic)
n   0.945358190 +/- 0.0579          Peri.   87.071404 +/- 37
a   1.028186242 +/- 0.042           Node    20.079416 +/- 0.06
e   0.13006212 +/- 0.0357           Incl.    7.435796 +/- 3.9
P   1.043/380.801d         H 27.11  G  0.15   U 10.8  SR
q 0.894458155 +/- 0.0396    Q 1.161914328 +/- 0.0811
From 6 observations 2025 Oct. 13 (19.0 min); mean residual 0".94
Residuals in arcseconds: 
251013 I41  .73+  .77-    251013 I41  .54-  1.1-    251013 I41  .28+  2.3+    
251013 I41  .70-  .84+    251013 I41  .41-  .74-    251013 I41  .64+  .48-    

Ephemerides (geocentric):
Date (UTC) HH   RA             Dec           delta  r     elong  mag " sig PA
---- --------  ------------   ------------  ------ ------ -----  --- --------
2025 10 18 01  15 13 42.137   +62 14 41.95  .01077 0.9936  74.5 21.1  35d  80
2025 10 18 02  15 13 12.617   +61 55 51.04  .01087 0.9935  74.2 21.2  35d  81
2025 10 18 03  15 12 44.263   +61 37 21.96  .01098 0.9934  73.9 21.2  36d  81
2025 10 18 04  15 12 17.007   +61 19 14.16  .01109 0.9933  73.6 21.3  36d  82
2025 10 18 05  15 11 50.786   +61 01 27.09  .01120 0.9932  73.3 21.3  37d  82
2025 10 18 06  15 11 25.544   +60 44 00.23  .01131 0.9931  73.0 21.3  37d  83
2025 10 18 07  15 11 01.225   +60 26 53.06  .01142 0.9930  72.8 21.4  37d  83
2025 10 18 08  15 10 37.780   +60 10 05.10  .01153 0.9929  72.5 21.4  38d  83
2025 10 18 09  15 10 15.163   +59 53 35.84  .01164 0.9929  72.2 21.4  38d  84
2025 10 18 10  15 09 53.330   +59 37 24.83  .01175 0.9928  72.0 21.5  38d  84
2025 10 18 11  15 09 32.243   +59 21 31.60  .01186 0.9927  71.7 21.5  39d  84
2025 10 18 12  15 09 11.862   +59 05 55.72  .01197 0.9926  71.5 21.5  53d  93
2025 10 18 13  15 08 52.153   +58 50 36.75  .01208 0.9925  71.2 21.6  53d  93
2025 10 18 14  15 08 33.083   +58 35 34.27  .01219 0.9924  71.0 21.6  54d  93
2025 10 18 15  15 08 14.622   +58 20 47.88  .01230 0.9923  70.8 21.6  54d  93
2025 10 18 16  15 07 56.740   +58 06 17.17  .01241 0.9922  70.5 21.7  55d  94
2025 10 18 17  15 07 39.411   +57 52 01.78  .01253 0.9921  70.3 21.7  55d  94
2025 10 18 18  15 07 22.609   +57 38 01.31  .01264 0.9920  70.1 21.7  55d  94
2025 10 18 19  15 07 06.311   +57 24 15.42  .01275 0.9919  69.9 21.8  56d  94
2025 10 18 20  15 06 50.494   +57 10 43.76  .01286 0.9918  69.6 21.8  56d  94
2025 10 18 21  15 06 35.137   +56 57 25.96  .01297 0.9917  69.4 21.8  56d  94
2025 10 18 22  15 06 20.219   +56 44 21.72  .01309 0.9916  69.2 21.9  56d  94
2025 10 18 23  15 06 05.724   +56 31 30.70  .01320 0.9915  69.0 21.9  57d  94
2025 10 19 00  15 05 51.631   +56 18 52.60  .01331 0.9914  68.8 21.9  57d  94
2025 10 19 01  15 05 37.925   +56 06 27.10  .01343 0.9913  68.6 21.9  57d  94
2025 10 19 02  15 05 24.591   +55 54 13.91  .01354 0.9912  68.4 22.0  58d  94
2025 10 19 03  15 05 11.612   +55 42 12.75  .01365 0.9912  68.3 22.0  58d  94
2025 10 19 04  15 04 58.975   +55 30 23.33  .01377 0.9911  68.1 22.0  58d  94
2025 10 19 05  15 04 46.666   +55 18 45.39  .01388 0.9910  67.9 22.1  58d  94
2025 10 19 06  15 04 34.672   +55 07 18.66  .01400 0.9909  67.7 22.1  59d  94
2025 10 19 07  15 04 22.982   +54 56 02.89  .01411 0.9908  67.5 22.1  59d  94
2025 10 19 08  15 04 11.583   +54 44 57.82  .01422 0.9907  67.3 22.1  59d  94
2025 10 19 09  15 04 00.466   +54 34 03.22  .01434 0.9906  67.2 22.2  59d  94
2025 10 19 10  15 03 49.619   +54 23 18.84  .01445 0.9905  67.0 22.2  60d  94
2025 10 19 11  15 03 39.032   +54 12 44.47  .01457 0.9904  66.8 22.2  60d  94
2025 10 19 12  15 03 28.696   +54 02 19.88  .01468 0.9903  66.7 22.3  60d  94
2025 10 19 13  15 03 18.603   +53 52 04.84  .01480 0.9902  66.5 22.3  60d  94
2025 10 19 14  15 03 08.743   +53 41 59.16  .01491 0.9901  66.4 22.3  60d  94
2025 10 19 15  15 02 59.109   +53 32 02.63  .01503 0.9900  66.2 22.3  61d  94
2025 10 19 16  15 02 49.692   +53 22 15.04  .01514 .98993  66.0 22.4  61d  95
2025 10 19 17  15 02 40.485   +53 12 36.21  .01526 .98984  65.9 22.4  61d  95
2025 10 19 18  15 02 31.481   +53 03 05.94  .01537 .98974  65.7 22.4  61d  95
2025 10 19 19  15 02 22.673   +52 53 44.06  .01549 .98965  65.6 22.4  61d  95
2025 10 19 20  15 02 14.055   +52 44 30.38  .01561 .98956  65.5 22.5  61d  95
2025 10 19 21  15 02 05.621   +52 35 24.73  .01572 .98946  65.3 22.5  62d  95
2025 10 19 22  15 01 57.364   +52 26 26.94  .01584 .98937  65.2 22.5  62d  95
2025 10 19 23  15 01 49.279   +52 17 36.84  .01595 .98927  65.0 22.5  62d  95
2025 10 20 00  15 01 41.360   +52 08 54.28  .01607 .98918  64.9 22.6  62d  95